Year,Month,Day,Hour,Minute,Value (Times are PST for windspeed in km/hr)
2015,08,29,00,00,1.20
2015,08,29,00,01,2.30
2015,08,29,00,02,2.90
2015,08,29,00,03,2.50
2015,08,29,00,04,3.20
2015,08,29,00,05,3.10
2015,08,29,00,06,3.10
2015,08,29,00,07,3.10
2015,08,29,00,08,4.60
2015,08,29,00,09,3.70
2015,08,29,00,10,4.70
2015,08,29,00,11,5.60
2015,08,29,00,12,4.80
2015,08,29,00,13,4.00
2015,08,29,00,14,4.10
2015,08,29,00,15,3.70
2015,08,29,00,16,4.00
2015,08,29,00,17,6.00
2015,08,29,00,18,5.20
2015,08,29,00,19,5.10
2015,08,29,00,20,5.00
2015,08,29,00,21,5.60
2015,08,29,00,22,5.00
2015,08,29,00,23,3.80
2015,08,29,00,24,4.80
2015,08,29,00,25,5.20
2015,08,29,00,26,6.40
2015,08,29,00,27,5.00
2015,08,29,00,28,4.80
2015,08,29,00,29,3.10
2015,08,29,00,30,4.30
2015,08,29,00,31,2.60
2015,08,29,00,32,1.40
2015,08,29,00,33,1.30
2015,08,29,00,34,2.60
2015,08,29,00,35,3.70
2015,08,29,00,36,4.90
2015,08,29,00,37,4.40
2015,08,29,00,38,3.50
2015,08,29,00,39,5.00
2015,08,29,00,40,5.20
2015,08,29,00,41,2.80
2015,08,29,00,42,1.20
2015,08,29,00,43,2.30
2015,08,29,00,44,2.80
2015,08,29,00,45,4.40
2015,08,29,00,46,3.60
2015,08,29,00,47,3.10
2015,08,29,00,48,2.70
2015,08,29,00,49,1.80
2015,08,29,00,50,3.40
2015,08,29,00,51,2.00
2015,08,29,00,52,2.60
2015,08,29,00,53,2.50
2015,08,29,00,54,1.30
2015,08,29,00,55,2.90
2015,08,29,00,56,1.80
2015,08,29,00,57,2.60
2015,08,29,00,58,2.50
2015,08,29,00,59,1.90
2015,08,29,01,00,2.20
2015,08,29,01,01,0.70
2015,08,29,01,02,0.40
2015,08,29,01,03,0.00
2015,08,29,01,04,0.00
2015,08,29,01,05,0.80
2015,08,29,01,06,0.80
2015,08,29,01,07,2.40
2015,08,29,01,08,5.00
2015,08,29,01,09,6.30
2015,08,29,01,10,5.00
2015,08,29,01,11,4.50
2015,08,29,01,12,5.60
2015,08,29,01,13,4.40
2015,08,29,01,14,6.00
2015,08,29,01,15,7.40
2015,08,29,01,16,5.20
2015,08,29,01,17,6.50
2015,08,29,01,18,6.70
2015,08,29,01,19,5.50
2015,08,29,01,20,7.10
2015,08,29,01,21,7.00
2015,08,29,01,22,7.20
2015,08,29,01,23,6.60
2015,08,29,01,24,6.60
2015,08,29,01,25,4.70
2015,08,29,01,26,6.40
2015,08,29,01,27,7.10
2015,08,29,01,28,7.30
2015,08,29,01,29,7.50
2015,08,29,01,30,6.70
2015,08,29,01,31,6.20
2015,08,29,01,32,6.30
2015,08,29,01,33,5.70
2015,08,29,01,34,6.70
2015,08,29,01,35,8.30
2015,08,29,01,36,6.70
2015,08,29,01,37,6.10
2015,08,29,01,38,5.60
2015,08,29,01,39,6.00
2015,08,29,01,40,6.90
2015,08,29,01,41,3.30
2015,08,29,01,42,3.40
2015,08,29,01,43,4.10
2015,08,29,01,44,2.90
2015,08,29,01,45,2.80
2015,08,29,01,46,5.90
2015,08,29,01,47,4.90
2015,08,29,01,48,3.50
2015,08,29,01,49,4.80
2015,08,29,01,50,6.00
2015,08,29,01,51,4.00
2015,08,29,01,52,5.30
2015,08,29,01,53,5.00
2015,08,29,01,54,5.80
2015,08,29,01,55,5.60
2015,08,29,01,56,5.80
2015,08,29,01,57,7.30
2015,08,29,01,58,6.10
2015,08,29,01,59,6.20
2015,08,29,02,00,4.80
2015,08,29,02,01,3.50
2015,08,29,02,02,5.30
2015,08,29,02,03,3.60
2015,08,29,02,04,3.10
2015,08,29,02,05,2.90
2015,08,29,02,06,2.30
2015,08,29,02,07,1.50
2015,08,29,02,08,2.80
2015,08,29,02,09,3.00
2015,08,29,02,10,2.50
2015,08,29,02,11,2.30
2015,08,29,02,12,3.40
2015,08,29,02,13,3.90
2015,08,29,02,14,4.70
2015,08,29,02,15,4.80
2015,08,29,02,16,5.60
2015,08,29,02,17,4.50
2015,08,29,02,18,6.00
2015,08,29,02,19,7.10
2015,08,29,02,20,6.50
2015,08,29,02,21,6.40
2015,08,29,02,22,4.60
2015,08,29,02,23,4.10
2015,08,29,02,24,4.50
2015,08,29,02,25,4.40
2015,08,29,02,26,4.30
2015,08,29,02,27,5.10
2015,08,29,02,28,6.40
2015,08,29,02,29,5.60
2015,08,29,02,30,7.70
2015,08,29,02,31,7.90
2015,08,29,02,32,7.50
2015,08,29,02,33,9.00
2015,08,29,02,34,11.20
2015,08,29,02,35,9.20
2015,08,29,02,36,10.30
2015,08,29,02,37,9.10
2015,08,29,02,38,9.00
2015,08,29,02,39,10.20
2015,08,29,02,40,6.40
2015,08,29,02,41,9.30
2015,08,29,02,42,7.90
2015,08,29,02,43,7.10
2015,08,29,02,44,7.50
2015,08,29,02,45,7.60
2015,08,29,02,46,7.10
2015,08,29,02,47,7.10
2015,08,29,02,48,9.70
2015,08,29,02,49,9.50
2015,08,29,02,50,7.80
2015,08,29,02,51,8.30
2015,08,29,02,52,8.60
2015,08,29,02,53,7.30
2015,08,29,02,54,9.00
2015,08,29,02,55,4.80
2015,08,29,02,56,5.00
2015,08,29,02,57,5.60
2015,08,29,02,58,5.80
2015,08,29,02,59,7.10
2015,08,29,03,00,6.90
2015,08,29,03,01,7.30
2015,08,29,03,02,8.60
2015,08,29,03,03,8.60
2015,08,29,03,04,6.50
2015,08,29,03,05,6.10
2015,08,29,03,06,6.50
2015,08,29,03,07,4.00
2015,08,29,03,08,6.40
2015,08,29,03,09,6.20
2015,08,29,03,10,5.50
2015,08,29,03,11,5.10
2015,08,29,03,12,4.40
2015,08,29,03,13,3.30
2015,08,29,03,14,5.60
2015,08,29,03,15,5.00
2015,08,29,03,16,5.10
2015,08,29,03,17,4.20
2015,08,29,03,18,4.40
2015,08,29,03,19,6.30
2015,08,29,03,20,5.80
2015,08,29,03,21,6.10
2015,08,29,03,22,11.30
2015,08,29,03,23,9.40
2015,08,29,03,24,9.10
2015,08,29,03,25,8.40
2015,08,29,03,26,8.30
2015,08,29,03,27,7.30
2015,08,29,03,28,9.70
2015,08,29,03,29,4.80
2015,08,29,03,30,5.80
2015,08,29,03,31,7.00
2015,08,29,03,32,8.20
2015,08,29,03,33,7.30
2015,08,29,03,34,7.10
2015,08,29,03,35,7.00
2015,08,29,03,36,7.00
2015,08,29,03,37,7.10
2015,08,29,03,38,6.70
2015,08,29,03,39,5.90
2015,08,29,03,40,7.60
2015,08,29,03,41,7.00
2015,08,29,03,42,8.90
2015,08,29,03,43,10.20
2015,08,29,03,44,8.40
2015,08,29,03,45,10.30
2015,08,29,03,46,8.90
2015,08,29,03,47,6.60
2015,08,29,03,48,6.40
2015,08,29,03,49,2.90
2015,08,29,03,50,2.80
2015,08,29,03,51,2.80
2015,08,29,03,52,5.60
2015,08,29,03,53,2.50
2015,08,29,03,54,3.10
2015,08,29,03,55,4.50
2015,08,29,03,56,5.50
2015,08,29,03,57,6.60
2015,08,29,03,58,7.30
2015,08,29,03,59,7.70
2015,08,29,04,00,7.70
2015,08,29,04,01,7.20
2015,08,29,04,02,6.60
2015,08,29,04,03,6.70
2015,08,29,04,04,7.10
2015,08,29,04,05,7.20
2015,08,29,04,06,8.20
2015,08,29,04,07,6.40
2015,08,29,04,08,5.60
2015,08,29,04,09,5.80
2015,08,29,04,10,6.70
2015,08,29,04,11,7.40
2015,08,29,04,12,8.40
2015,08,29,04,13,8.10
2015,08,29,04,14,7.00
2015,08,29,04,15,9.20
2015,08,29,04,16,7.70
2015,08,29,04,17,7.60
2015,08,29,04,18,8.10
2015,08,29,04,19,9.70
2015,08,29,04,20,7.50
2015,08,29,04,21,6.90
2015,08,29,04,22,6.80
2015,08,29,04,23,10.60
2015,08,29,04,24,8.10
2015,08,29,04,25,8.10
2015,08,29,04,26,8.90
2015,08,29,04,27,9.20
2015,08,29,04,28,7.70
2015,08,29,04,29,6.50
2015,08,29,04,30,5.70
2015,08,29,04,31,7.90
2015,08,29,04,32,8.20
2015,08,29,04,33,7.40
2015,08,29,04,34,9.50
2015,08,29,04,35,9.80
2015,08,29,04,36,9.10
2015,08,29,04,37,10.20
2015,08,29,04,38,10.50
2015,08,29,04,39,10.60
2015,08,29,04,40,11.60
2015,08,29,04,41,8.40
2015,08,29,04,42,8.40
2015,08,29,04,43,8.80
2015,08,29,04,44,9.70
2015,08,29,04,45,9.40
2015,08,29,04,46,9.00
2015,08,29,04,47,10.00
2015,08,29,04,48,9.60
2015,08,29,04,49,9.40
2015,08,29,04,50,9.30
2015,08,29,04,51,10.30
2015,08,29,04,52,9.90
2015,08,29,04,53,7.50
2015,08,29,04,54,9.50
2015,08,29,04,55,9.70
2015,08,29,04,56,7.40
2015,08,29,04,57,8.10
2015,08,29,04,58,8.10
2015,08,29,04,59,8.10
2015,08,29,05,00,8.10
2015,08,29,05,01,8.30
2015,08,29,05,02,9.90
2015,08,29,05,03,9.60
2015,08,29,05,04,7.80
2015,08,29,05,05,8.40
2015,08,29,05,06,5.70
2015,08,29,05,07,4.50
2015,08,29,05,08,3.40
2015,08,29,05,09,6.40
2015,08,29,05,10,4.30
2015,08,29,05,11,5.60
2015,08,29,05,12,7.80
2015,08,29,05,13,9.30
2015,08,29,05,14,7.80
2015,08,29,05,15,7.20
2015,08,29,05,16,7.30
2015,08,29,05,17,6.00
2015,08,29,05,18,5.40
2015,08,29,05,19,8.60
2015,08,29,05,20,6.40
2015,08,29,05,21,7.10
2015,08,29,05,22,5.60
2015,08,29,05,23,5.20
2015,08,29,05,24,4.20
2015,08,29,05,25,2.00
2015,08,29,05,26,1.00
2015,08,29,05,27,0.30
2015,08,29,05,28,0.40
2015,08,29,05,29,3.60
2015,08,29,05,30,3.60
2015,08,29,05,31,4.70
2015,08,29,05,32,3.50
2015,08,29,05,33,3.10
2015,08,29,05,34,1.30
2015,08,29,05,35,3.60
2015,08,29,05,36,2.30
2015,08,29,05,37,2.30
2015,08,29,05,38,5.40
2015,08,29,05,39,5.10
2015,08,29,05,40,4.50
2015,08,29,05,41,5.30
2015,08,29,05,42,3.10
2015,08,29,05,43,2.70
2015,08,29,05,44,1.50
2015,08,29,05,45,5.50
2015,08,29,05,46,10.00
2015,08,29,05,47,12.20
2015,08,29,05,48,12.40
2015,08,29,05,49,14.30
2015,08,29,05,50,13.80
2015,08,29,05,51,13.50
2015,08,29,05,52,8.20
2015,08,29,05,53,3.20
2015,08,29,05,54,6.70
2015,08,29,05,55,6.40
2015,08,29,05,56,4.80
2015,08,29,05,57,5.40
2015,08,29,05,58,3.50
2015,08,29,05,59,1.10
2015,08,29,06,00,0.10
2015,08,29,06,01,0.90
2015,08,29,06,02,3.70
2015,08,29,06,03,4.10
2015,08,29,06,04,5.00
2015,08,29,06,05,6.40
2015,08,29,06,06,7.50
2015,08,29,06,07,5.30
2015,08,29,06,08,6.20
2015,08,29,06,09,6.10
2015,08,29,06,10,5.60
2015,08,29,06,11,5.80
2015,08,29,06,12,8.10
2015,08,29,06,13,6.80
2015,08,29,06,14,5.90
2015,08,29,06,15,6.80
2015,08,29,06,16,6.20
2015,08,29,06,17,5.70
2015,08,29,06,18,5.50
2015,08,29,06,19,6.80
2015,08,29,06,20,6.10
2015,08,29,06,21,6.40
2015,08,29,06,22,8.60
2015,08,29,06,23,8.90
2015,08,29,06,24,4.40
2015,08,29,06,25,2.60
2015,08,29,06,26,3.20
2015,08,29,06,27,2.70
2015,08,29,06,28,5.90
2015,08,29,06,29,4.60
2015,08,29,06,30,4.00
2015,08,29,06,31,5.40
2015,08,29,06,32,4.80
2015,08,29,06,33,3.90
2015,08,29,06,34,4.20
2015,08,29,06,35,4.40
2015,08,29,06,36,5.10
2015,08,29,06,37,7.50
2015,08,29,06,38,6.40
2015,08,29,06,39,4.80
2015,08,29,06,40,5.70
2015,08,29,06,41,6.20
2015,08,29,06,42,4.90
2015,08,29,06,43,6.60
2015,08,29,06,44,5.80
2015,08,29,06,45,6.40
2015,08,29,06,46,7.10
2015,08,29,06,47,8.30
2015,08,29,06,48,8.00
2015,08,29,06,49,9.20
2015,08,29,06,50,7.60
2015,08,29,06,51,7.80
2015,08,29,06,52,9.40
2015,08,29,06,53,9.50
2015,08,29,06,54,8.70
2015,08,29,06,55,5.30
2015,08,29,06,56,9.90
2015,08,29,06,57,10.90
2015,08,29,06,58,8.30
2015,08,29,06,59,6.00
2015,08,29,07,00,8.40
2015,08,29,07,01,10.20
2015,08,29,07,02,6.90
2015,08,29,07,03,9.90
2015,08,29,07,04,9.60
2015,08,29,07,05,10.00
2015,08,29,07,06,10.00
2015,08,29,07,07,8.90
2015,08,29,07,08,12.10
2015,08,29,07,09,11.20
2015,08,29,07,10,8.90
2015,08,29,07,11,8.30
2015,08,29,07,12,9.50
2015,08,29,07,13,10.20
2015,08,29,07,14,8.00
2015,08,29,07,15,7.80
2015,08,29,07,16,6.10
2015,08,29,07,17,6.70
2015,08,29,07,18,8.60
2015,08,29,07,19,5.90
2015,08,29,07,20,7.20
2015,08,29,07,21,11.50
2015,08,29,07,22,12.70
2015,08,29,07,23,8.10
2015,08,29,07,24,6.90
2015,08,29,07,25,8.60
2015,08,29,07,26,7.50
2015,08,29,07,27,7.40
2015,08,29,07,28,10.20
2015,08,29,07,29,5.10
2015,08,29,07,30,7.00
2015,08,29,07,31,7.80
2015,08,29,07,32,6.40
2015,08,29,07,33,6.60
2015,08,29,07,34,7.00
2015,08,29,07,35,6.40
2015,08,29,07,36,5.60
2015,08,29,07,37,8.80
2015,08,29,07,38,8.90
2015,08,29,07,39,8.10
2015,08,29,07,40,4.00
2015,08,29,07,41,3.40
2015,08,29,07,42,11.90
2015,08,29,07,43,5.60
2015,08,29,07,44,0.80
2015,08,29,07,45,2.30
2015,08,29,07,46,7.00
2015,08,29,07,47,5.80
2015,08,29,07,48,4.80
2015,08,29,07,49,5.20
2015,08,29,07,50,5.90
2015,08,29,07,51,5.80
2015,08,29,07,52,5.40
2015,08,29,07,53,5.60
2015,08,29,07,54,1.90
2015,08,29,07,55,5.80
2015,08,29,07,56,3.40
2015,08,29,07,57,1.40
2015,08,29,07,58,2.20
2015,08,29,07,59,3.00
2015,08,29,08,00,5.20
2015,08,29,08,01,4.30
2015,08,29,08,02,3.60
2015,08,29,08,03,3.20
2015,08,29,08,04,3.70
2015,08,29,08,05,1.90
2015,08,29,08,06,0.80
2015,08,29,08,07,0.00
2015,08,29,08,08,0.90
2015,08,29,08,09,1.50
2015,08,29,08,10,0.70
2015,08,29,08,11,2.40
2015,08,29,08,12,5.30
2015,08,29,08,13,2.90
2015,08,29,08,14,5.20
2015,08,29,08,15,2.80
2015,08,29,08,16,2.40
2015,08,29,08,17,0.60
2015,08,29,08,18,7.00
2015,08,29,08,19,8.30
2015,08,29,08,20,5.60
2015,08,29,08,21,3.10
2015,08,29,08,22,2.40
2015,08,29,08,23,4.60
2015,08,29,08,24,4.20
2015,08,29,08,25,4.60
2015,08,29,08,26,5.60
2015,08,29,08,27,3.10
2015,08,29,08,28,9.30
2015,08,29,08,29,5.80
2015,08,29,08,30,5.80
2015,08,29,08,31,5.10
2015,08,29,08,32,4.00
2015,08,29,08,33,4.40
2015,08,29,08,34,5.00
2015,08,29,08,35,4.30
2015,08,29,08,36,3.80
2015,08,29,08,37,3.40
2015,08,29,08,38,2.30
2015,08,29,08,39,2.30
2015,08,29,08,40,2.50
2015,08,29,08,41,4.50
2015,08,29,08,42,3.50
2015,08,29,08,43,3.70
2015,08,29,08,44,5.30
2015,08,29,08,45,5.30
2015,08,29,08,46,6.10
2015,08,29,08,47,4.80
2015,08,29,08,48,4.80
2015,08,29,08,49,3.30
2015,08,29,08,50,4.40
2015,08,29,08,51,5.80
2015,08,29,08,52,2.10
2015,08,29,08,53,1.80
2015,08,29,08,54,2.30
2015,08,29,08,55,0.20
2015,08,29,08,56,4.40
2015,08,29,08,57,2.00
2015,08,29,08,58,1.20
2015,08,29,08,59,0.40
2015,08,29,09,00,2.50
2015,08,29,09,01,2.90
2015,08,29,09,02,5.90
2015,08,29,09,03,10.10
2015,08,29,09,04,7.70
2015,08,29,09,05,3.60
2015,08,29,09,06,4.40
2015,08,29,09,07,10.00
2015,08,29,09,08,9.70
2015,08,29,09,09,4.10
2015,08,29,09,10,8.00
2015,08,29,09,11,6.10
2015,08,29,09,12,5.40
2015,08,29,09,13,6.00
2015,08,29,09,14,5.60
2015,08,29,09,15,5.50
2015,08,29,09,16,5.50
2015,08,29,09,17,10.00
2015,08,29,09,18,6.90
2015,08,29,09,19,9.50
2015,08,29,09,20,11.90
2015,08,29,09,21,9.10
2015,08,29,09,22,7.90
2015,08,29,09,23,7.80
2015,08,29,09,24,9.00
2015,08,29,09,25,9.80
2015,08,29,09,26,8.10
2015,08,29,09,27,8.90
2015,08,29,09,28,5.60
2015,08,29,09,29,12.40
2015,08,29,09,30,12.80
2015,08,29,09,31,12.00
2015,08,29,09,32,9.30
2015,08,29,09,33,8.10
2015,08,29,09,34,8.60
2015,08,29,09,35,3.90
2015,08,29,09,36,4.80
2015,08,29,09,37,13.60
2015,08,29,09,38,11.90
2015,08,29,09,39,9.40
2015,08,29,09,40,12.50
2015,08,29,09,41,10.40
2015,08,29,09,42,7.60
2015,08,29,09,43,7.40
2015,08,29,09,44,9.60
2015,08,29,09,45,14.70
2015,08,29,09,46,12.50
2015,08,29,09,47,12.20
2015,08,29,09,48,12.00
2015,08,29,09,49,15.80
2015,08,29,09,50,10.60
2015,08,29,09,51,15.70
2015,08,29,09,52,11.70
2015,08,29,09,53,6.00
2015,08,29,09,54,4.40
2015,08,29,09,55,11.60
2015,08,29,09,56,8.40
2015,08,29,09,57,8.20
2015,08,29,09,58,5.30
2015,08,29,09,59,12.30
2015,08,29,10,00,15.90
2015,08,29,10,01,14.10
2015,08,29,10,02,10.60
2015,08,29,10,03,19.80
2015,08,29,10,04,14.40
2015,08,29,10,05,18.10
2015,08,29,10,06,8.60
2015,08,29,10,07,7.40
2015,08,29,10,08,14.40
2015,08,29,10,09,8.70
2015,08,29,10,10,16.60
2015,08,29,10,11,7.90
2015,08,29,10,12,13.80
2015,08,29,10,13,20.20
2015,08,29,10,14,14.20
2015,08,29,10,15,11.30
2015,08,29,10,16,14.50
2015,08,29,10,17,22.90
2015,08,29,10,18,14.90
2015,08,29,10,19,11.90
2015,08,29,10,20,18.70
2015,08,29,10,21,18.90
2015,08,29,10,22,14.30
2015,08,29,10,23,15.70
2015,08,29,10,24,15.70
2015,08,29,10,25,16.90
2015,08,29,10,26,16.60
2015,08,29,10,27,17.70
2015,08,29,10,28,18.10
2015,08,29,10,29,15.50
2015,08,29,10,30,12.20
2015,08,29,10,31,19.20
2015,08,29,10,32,19.70
2015,08,29,10,33,20.70
2015,08,29,10,34,22.80
2015,08,29,10,35,16.60
2015,08,29,10,36,15.10
2015,08,29,10,37,19.20
2015,08,29,10,38,22.00
2015,08,29,10,39,9.40
2015,08,29,10,40,10.20
2015,08,29,10,41,22.70
2015,08,29,10,42,25.30
2015,08,29,10,43,29.50
2015,08,29,10,44,27.90
2015,08,29,10,45,22.60
2015,08,29,10,46,21.20
2015,08,29,10,47,21.40
2015,08,29,10,48,19.20
2015,08,29,10,49,24.20
2015,08,29,10,50,24.90
2015,08,29,10,51,25.20
2015,08,29,10,52,19.70
2015,08,29,10,53,26.30
2015,08,29,10,54,27.90
2015,08,29,10,55,30.40
2015,08,29,10,56,27.90
2015,08,29,10,57,26.00
2015,08,29,10,58,23.60
2015,08,29,10,59,19.00
2015,08,29,11,00,19.60
2015,08,29,11,01,23.40
2015,08,29,11,02,24.60
2015,08,29,11,03,25.10
2015,08,29,11,04,24.60
2015,08,29,11,05,25.00
2015,08,29,11,06,20.30
2015,08,29,11,07,12.10
2015,08,29,11,08,18.30
2015,08,29,11,09,25.20
2015,08,29,11,10,25.10
2015,08,29,11,11,22.50
2015,08,29,11,12,28.50
2015,08,29,11,13,22.50
2015,08,29,11,14,31.10
2015,08,29,11,15,24.60
2015,08,29,11,16,27.90
2015,08,29,11,17,24.10
2015,08,29,11,18,18.70
2015,08,29,11,19,26.60
2015,08,29,11,20,28.20
2015,08,29,11,21,27.20
2015,08,29,11,22,21.40
2015,08,29,11,23,23.60
2015,08,29,11,24,21.70
2015,08,29,11,25,21.80
2015,08,29,11,26,23.00
2015,08,29,11,27,25.60
2015,08,29,11,28,23.00
2015,08,29,11,29,16.50
2015,08,29,11,30,20.30
2015,08,29,11,31,26.80
2015,08,29,11,32,26.70
2015,08,29,11,33,22.90
2015,08,29,11,34,19.10
2015,08,29,11,35,19.00
2015,08,29,11,36,28.40
2015,08,29,11,37,21.90
2015,08,29,11,38,23.60
2015,08,29,11,39,17.90
2015,08,29,11,40,22.60
2015,08,29,11,41,16.40
2015,08,29,11,42,8.60
2015,08,29,11,43,8.30
2015,08,29,11,44,15.40
2015,08,29,11,45,12.10
2015,08,29,11,46,18.40
2015,08,29,11,47,14.30
2015,08,29,11,48,11.30
2015,08,29,11,49,12.60
2015,08,29,11,50,8.70
2015,08,29,11,51,12.80
2015,08,29,11,52,14.60
2015,08,29,11,53,11.00
2015,08,29,11,54,13.60
2015,08,29,11,55,15.60
2015,08,29,11,56,17.40
2015,08,29,11,57,14.20
2015,08,29,11,58,11.30
2015,08,29,11,59,10.70
2015,08,29,12,00,16.40
2015,08,29,12,01,18.10
2015,08,29,12,02,13.70
2015,08,29,12,03,14.80
2015,08,29,12,04,12.60
2015,08,29,12,05,18.80
2015,08,29,12,06,9.40
2015,08,29,12,07,10.20
2015,08,29,12,08,12.40
2015,08,29,12,09,10.00
2015,08,29,12,10,7.80
2015,08,29,12,11,5.10
2015,08,29,12,12,5.60
2015,08,29,12,13,5.50
2015,08,29,12,14,4.60
2015,08,29,12,15,4.40
2015,08,29,12,16,2.90
2015,08,29,12,17,3.70
2015,08,29,12,18,5.00
2015,08,29,12,19,3.90
2015,08,29,12,20,3.50
2015,08,29,12,21,3.40
2015,08,29,12,22,4.20
2015,08,29,12,23,4.80
2015,08,29,12,24,6.40
2015,08,29,12,25,9.10
2015,08,29,12,26,5.00
2015,08,29,12,27,4.30
2015,08,29,12,28,4.50
2015,08,29,12,29,8.10
2015,08,29,12,30,4.10
2015,08,29,12,31,4.30
2015,08,29,12,32,7.60
2015,08,29,12,33,12.50
2015,08,29,12,34,10.80
2015,08,29,12,35,8.60
2015,08,29,12,36,5.30
2015,08,29,12,37,5.30
2015,08,29,12,38,4.10
2015,08,29,12,39,5.30
2015,08,29,12,40,8.60
2015,08,29,12,41,3.70
2015,08,29,12,42,2.30
2015,08,29,12,43,4.40
2015,08,29,12,44,3.10
2015,08,29,12,45,0.40
2015,08,29,12,46,1.30
2015,08,29,12,47,4.40
2015,08,29,12,48,8.00
2015,08,29,12,49,7.70
2015,08,29,12,50,7.30
2015,08,29,12,51,16.20
2015,08,29,12,52,18.50
2015,08,29,12,53,12.10
2015,08,29,12,54,14.80
2015,08,29,12,55,14.00
2015,08,29,12,56,5.90
2015,08,29,12,57,7.00
2015,08,29,12,58,9.70
2015,08,29,12,59,8.90
2015,08,29,13,00,10.20
2015,08,29,13,01,6.10
2015,08,29,13,02,7.00
2015,08,29,13,03,11.70
2015,08,29,13,04,9.70
2015,08,29,13,05,11.60
2015,08,29,13,06,7.50
2015,08,29,13,07,7.50
2015,08,29,13,08,11.30
2015,08,29,13,09,10.80
2015,08,29,13,10,14.00
2015,08,29,13,11,10.00
2015,08,29,13,12,12.50
2015,08,29,13,13,11.10
2015,08,29,13,14,7.00
2015,08,29,13,15,9.70
2015,08,29,13,16,10.00
2015,08,29,13,17,8.90
2015,08,29,13,18,14.30
2015,08,29,13,19,11.90
2015,08,29,13,20,10.80
2015,08,29,13,21,8.50
2015,08,29,13,22,9.80
2015,08,29,13,23,9.20
2015,08,29,13,24,15.90
2015,08,29,13,25,13.10
2015,08,29,13,26,13.10
2015,08,29,13,27,8.80
2015,08,29,13,28,8.40
2015,08,29,13,29,6.30
2015,08,29,13,30,8.60
2015,08,29,13,31,10.50
2015,08,29,13,32,8.60
2015,08,29,13,33,10.30
2015,08,29,13,34,10.50
2015,08,29,13,35,11.40
2015,08,29,13,36,15.20
2015,08,29,13,37,12.80
2015,08,29,13,38,11.60
2015,08,29,13,39,7.60
2015,08,29,13,40,8.80
2015,08,29,13,41,12.70
2015,08,29,13,42,11.20
2015,08,29,13,43,11.00
2015,08,29,13,44,11.70
2015,08,29,13,45,14.90
2015,08,29,13,46,9.40
2015,08,29,13,47,12.40
2015,08,29,13,48,17.00
2015,08,29,13,49,25.30
2015,08,29,13,50,21.50
2015,08,29,13,51,21.90
2015,08,29,13,52,31.00
2015,08,29,13,53,33.80
2015,08,29,13,54,19.80
2015,08,29,13,55,24.10
2015,08,29,13,56,29.60
2015,08,29,13,57,25.50
2015,08,29,13,58,29.00
2015,08,29,13,59,24.90
2015,08,29,14,00,27.70
2015,08,29,14,01,28.90
2015,08,29,14,02,33.00
2015,08,29,14,03,32.40
2015,08,29,14,04,37.40
2015,08,29,14,05,35.00
2015,08,29,14,06,43.10
2015,08,29,14,07,31.40
2015,08,29,14,08,33.30
2015,08,29,14,09,28.80
2015,08,29,14,10,14.50
2015,08,29,14,11,25.20
2015,08,29,14,12,29.90
2015,08,29,14,13,44.10
2015,08,29,14,14,28.50
2015,08,29,14,15,32.60
2015,08,29,14,16,31.80
2015,08,29,14,17,27.60
2015,08,29,14,18,32.70
2015,08,29,14,19,41.80
2015,08,29,14,20,37.20
2015,08,29,14,21,28.50
2015,08,29,14,22,29.50
2015,08,29,14,23,25.30
2015,08,29,14,24,36.30
2015,08,29,14,25,32.00
2015,08,29,14,26,24.40
2015,08,29,14,27,22.20
2015,08,29,14,28,26.10
2015,08,29,14,29,23.80
2015,08,29,14,30,31.00
2015,08,29,14,31,21.00
2015,08,29,14,32,20.50
2015,08,29,14,33,27.70
2015,08,29,14,34,27.10
2015,08,29,14,35,27.00
2015,08,29,14,36,32.40
2015,08,29,14,37,21.70
2015,08,29,14,38,19.70
2015,08,29,14,39,24.20
2015,08,29,14,40,24.50
2015,08,29,14,41,22.80
2015,08,29,14,42,21.10
2015,08,29,14,43,36.10
2015,08,29,14,44,20.20
2015,08,29,14,45,31.50
2015,08,29,14,46,26.00
2015,08,29,14,47,18.90
2015,08,29,14,48,14.30
2015,08,29,14,49,18.40
2015,08,29,14,50,20.40
2015,08,29,14,51,26.50
2015,08,29,14,52,19.50
2015,08,29,14,53,24.10
2015,08,29,14,54,20.00
2015,08,29,14,55,18.30
2015,08,29,14,56,28.30
2015,08,29,14,57,18.80
2015,08,29,14,58,29.80
2015,08,29,14,59,17.90
2015,08,29,15,00,15.60
2015,08,29,15,01,19.20
2015,08,29,15,02,23.30
2015,08,29,15,03,16.60
2015,08,29,15,04,20.50
2015,08,29,15,05,14.50
2015,08,29,15,06,20.20
2015,08,29,15,07,21.50
2015,08,29,15,08,16.10
2015,08,29,15,09,11.80
2015,08,29,15,10,11.40
2015,08,29,15,11,11.30
2015,08,29,15,12,16.60
2015,08,29,17,51,4.00
2015,08,29,17,52,4.70
2015,08,29,17,53,2.50
2015,08,29,17,54,5.30
2015,08,29,17,55,5.00
2015,08,29,17,56,4.00
2015,08,29,17,57,2.50
2015,08,29,17,58,2.80
2015,08,29,17,59,4.80
2015,08,29,18,00,4.10
2015,08,29,18,01,4.30
2015,08,29,18,02,3.40
2015,08,29,18,03,6.90
2015,08,29,18,04,3.40
2015,08,29,18,05,5.60
2015,08,29,18,06,10.90
2015,08,29,18,07,12.70
2015,08,29,18,08,12.20
2015,08,29,18,09,7.40
2015,08,29,18,10,9.30
2015,08,29,18,11,7.60
2015,08,29,18,12,7.50
2015,08,29,18,13,7.80
2015,08,29,18,14,6.50
2015,08,29,18,15,6.70
2015,08,29,18,16,8.70
2015,08,29,18,17,13.20
2015,08,29,18,18,7.80
2015,08,29,18,19,10.80
2015,08,29,18,20,7.30
2015,08,29,18,21,7.40
2015,08,29,18,22,8.30
2015,08,29,18,23,8.70
2015,08,29,18,24,8.60
2015,08,29,18,25,10.40
2015,08,29,18,26,6.90
2015,08,29,18,27,5.90
2015,08,29,18,28,8.90
2015,08,29,18,29,8.10
2015,08,29,18,30,8.20
2015,08,29,18,31,3.50
2015,08,29,18,32,7.00
2015,08,29,18,33,4.10
2015,08,29,18,34,4.20
2015,08,29,18,35,4.90
2015,08,29,18,36,2.70
2015,08,29,18,37,2.40
2015,08,29,18,38,3.90
2015,08,29,18,39,4.20
2015,08,29,18,40,5.20
2015,08,29,18,41,4.80
2015,08,29,18,42,4.10
2015,08,29,18,43,4.00
2015,08,29,18,44,3.40
2015,08,29,18,45,2.30
2015,08,29,18,46,4.50
2015,08,29,18,47,5.20
2015,08,29,18,48,3.90
2015,08,29,18,49,4.20
2015,08,29,18,50,3.00
2015,08,29,18,51,1.90
2015,08,29,18,52,3.20
2015,08,29,18,53,3.00
2015,08,29,18,54,2.80
2015,08,29,18,55,3.10
2015,08,29,18,56,1.80
2015,08,29,18,57,1.80
2015,08,29,18,58,4.60
2015,08,29,18,59,5.40
2015,08,29,19,00,4.70
2015,08,29,19,01,6.20
2015,08,29,19,02,5.70
2015,08,29,19,03,3.90
2015,08,29,19,04,5.00
2015,08,29,19,05,5.00
2015,08,29,19,06,3.50
2015,08,29,19,07,2.60
2015,08,29,19,08,4.50
2015,08,29,19,09,6.10
2015,08,29,19,10,5.90
2015,08,29,19,11,6.10
2015,08,29,19,12,7.00
2015,08,29,19,13,7.30
2015,08,29,19,14,9.90
2015,08,29,19,15,9.40
2015,08,29,19,16,10.00
2015,08,29,19,17,8.20
2015,08,29,19,18,8.30
2015,08,29,19,19,7.60
2015,08,29,19,20,8.10
2015,08,29,19,21,7.40
2015,08,29,19,22,7.40
2015,08,29,19,23,8.10
2015,08,29,19,24,8.50
2015,08,29,19,25,7.20
2015,08,29,19,26,9.00
2015,08,29,19,27,9.40
2015,08,29,19,28,8.70
2015,08,29,19,29,7.00
2015,08,29,19,30,9.50
2015,08,29,19,31,7.70
2015,08,29,19,32,7.80
2015,08,29,19,33,5.70
2015,08,29,19,34,6.60
2015,08,29,19,35,6.10
2015,08,29,19,36,5.60
2015,08,29,19,37,5.80
2015,08,29,19,38,6.10
2015,08,29,19,39,4.80
2015,08,29,19,40,4.50
2015,08,29,19,41,6.10
2015,08,29,19,42,4.00
2015,08,29,19,43,3.60
2015,08,29,19,44,4.90
2015,08,29,19,45,4.90
2015,08,29,19,46,5.20
2015,08,29,19,47,5.20
2015,08,29,19,48,5.40
2015,08,29,19,49,3.90
2015,08,29,19,50,8.30
2015,08,29,19,51,7.60
2015,08,29,19,52,4.70
2015,08,29,19,53,5.00
2015,08,29,19,54,5.00
2015,08,29,19,55,3.40
2015,08,29,19,56,3.60
2015,08,29,19,57,3.50
2015,08,29,19,58,5.70
2015,08,29,19,59,2.70
2015,08,29,20,00,3.50
2015,08,29,20,01,2.00
2015,08,29,20,02,2.80
2015,08,29,20,03,3.00
2015,08,29,20,04,3.80
2015,08,29,20,05,4.20
2015,08,29,20,06,3.60
2015,08,29,20,07,4.30
2015,08,29,20,08,4.70
2015,08,29,20,09,4.40
2015,08,29,20,10,5.10
2015,08,29,20,11,3.00
2015,08,29,20,12,3.50
2015,08,29,20,13,2.80
2015,08,29,20,14,2.40
2015,08,29,20,15,3.30
2015,08,29,20,16,3.80
2015,08,29,20,17,3.70
2015,08,29,20,18,3.40
2015,08,29,20,19,4.80
2015,08,29,20,20,6.20
2015,08,29,20,21,5.70
2015,08,29,20,22,6.30
2015,08,29,20,23,6.90
2015,08,29,20,24,7.40
2015,08,29,20,25,5.90
2015,08,29,20,26,4.50
2015,08,29,20,27,3.40
2015,08,29,20,28,3.40
2015,08,29,20,29,4.80
2015,08,29,20,30,6.10
2015,08,29,20,31,6.10